Location: The Saddle
(36.8333°N, 80.3417°W)
Time: 00:54:12
(UTC-04:00)

SEEDS - Pass Details

Date: 16 March 2026
Orbit: 470 x 477 km, 97.8° (Epoch: 20 April)

Event Time Altitude Azimuth Distance (km) Brightness Sun altitude
Rises 06:10:36 0° 22° (NNE) 2,545 ? -16.8°
Reaches altitude 10° 06:12:49 10° 32° (NNE) 1,659 ? -16.4°
Maximum altitude 06:16:04 33° 98° (E) 823 ? -15.7°
Drops below altitude 10° 06:19:17 10° 164° (SSE) 1,641 ? -15.1°
Sets 06:21:28 0° 174° (S) 2,511 ? -14.7°
